Regional Weather Roundup
Issued by NWS Upton, NY

Current Version | Previous Version | Graphics & Text | Print | Product List | Glossary Off
Versions: 1 2 3 4 5 6 7 8 9 10 11 12 13 14 15 16 17 18 19 20 21 22 23 24 25 26 27 28 29 30 31 32 33 34 35 36 37 38 39 40 41 42 43 44 45 46 47 48 49 50

512
ASUS41 KOKX 230608
RWROKX

REGIONAL WEATHER ROUNDUP
NATIONAL WEATHER SERVICE NEW YORK NY
200 AM EDT WED AUG 23 2017

NOTE: "FAIR" INDICATES FEW OR NO CLOUDS BELOW 12,000 FEET WITH NO
SIGNIFICANT WEATHER AND/OR OBSTRUCTIONS TO VISIBILITY.

NYZ071-072-176-178-NJZ106-104-230700-
NEW YORK CITY METRO AREA

CITY           SKY/WX    TMP DP  RH WIND       PRES   REMARKS
Central Park   CLOUDY    73  71  93 VRB7      29.80F
Bronx Bot Gard   N/A     72  70  94 W7        29.78R
LaGuardia APRT CLOUDY    75  73  93 SW10      29.76S
Kennedy INTL   LGT RAIN  74  74 100 SW10      29.78F
Breezy Point     N/A     72 N/A N/A SW9         N/A
Newark/Liberty CLOUDY    73  71  93 SW10      29.77F
Teterboro      CLOUDY    74  71  91 SW8       29.76F
$$

NYZ177-179-078>081-230700-
LONG ISLAND NEW YORK

CITY           SKY/WX    TMP DP  RH WIND       PRES   REMARKS
Jones Beach      N/A     72 N/A N/A SW7G15      N/A
Matinecock PT    N/A     73 N/A N/A SW9G15      N/A
Farmingdale    LGT RAIN  73  71  93 SW8       29.77F
MacArthur/ISP  LGT RAIN  73  72  96 SW9       29.76F
Shirley        RAIN      75  73  93 SW8       29.78F FOG
Mt Sinai Harb    N/A    N/A N/A N/A SW7         N/A
Westhampton    RAIN      75  72  90 SW12G18   29.79F FOG
East Hampton   CLOUDY    75  73  92 SW13G23   29.78F
Montauk          N/A     75  74  96 SW8       29.78F
$$

NYZ052-065-067-230700-
HUDSON VALLEY

CITY           SKY/WX    TMP DP  RH WIND       PRES   REMARKS
White Plains   CLOUDY    72  69  90 CALM      29.77F
Larchmont Harb   N/A     73 N/A N/A S10         N/A
Croton On Huds   N/A     73 N/A N/A SE1         N/A
Newburgh       PTCLDY    72  72 100 W9        29.77F
Montgomery     CLOUDY    72  70  93 SW10      29.74F
Poughkeepsie   CLOUDY    73  70  90 SW5       29.73F
Albany         MOCLDY    72  67  84 SW6       29.70S
$$

NJZ001-105-106-008-010-013-015-019>022-104-230700-
NEW JERSEY

CITY           SKY/WX    TMP DP  RH WIND       PRES   REMARKS
Newark/Liberty CLOUDY    73  71  93 SW10      29.77F
Teterboro      CLOUDY    74  71  91 SW8       29.76F
Caldwell       CLOUDY    72  72 100 CALM      29.78S
Somerville     CLOUDY    72  72 100 SE3       29.76F
Linden         FAIR      73  70  92 CALM      29.78F
Perth Amboy      N/A     72 N/A N/A SW3         N/A
Sussex         MOCLDY    71  70  96 SW5       29.77F
Andover          N/A     71  69  93 CALM      29.79F
Trenton        CLOUDY    73  72  96 SW5       29.79F
Millville      MOCLDY    81  78  91 CALM      29.81S
Atlantic City  CLOUDY    80  75  84 N5        29.81S
Wrightstown    LGT RAIN  73  71  94 SW15      29.78S
Toms River     TSTM      72  70  93 S9        29.81F
Belmar         LGT RAIN  73  71  93 SW8       29.80F
$$

PAZ047>061-062-071-230700-
EASTERN PENNSYLVANIA

CITY           SKY/WX    TMP DP  RH WIND       PRES   REMARKS
Philadelphia   CLOUDY    76  73  91 SW13      29.81R
Allentown      LGT RAIN  74  70  87 SW7       29.79F
Scranton       CLOUDY    71  69  93 SW7       29.79F THUNDER
$$

CTZ002-004>006-009-010-012-RIZ004-006-007-MAZ004-011-015-230700-
SOUTHERN NEW ENGLAND
 IN CT

CITY           SKY/WX    TMP DP  RH WIND       PRES   REMARKS
Bradley INTL   CLOUDY    75  73  93 SW8       29.72S
Hartford       CLOUDY    76  74  93 SW8       29.72S
Danbury        CLOUDY    73  70  90 SW8       29.77F
Wtrbury/Oxford LGT RAIN  72  70  93 SW7G17    29.78S
Norwalk Harbor   N/A     73 N/A N/A SW13        N/A
Bridgeport     LGT RAIN  74  72  93 SW9       29.75F
Meriden        LGT RAIN  74  70  87 S8        29.75S
New Haven      CLOUDY    74  71  91 SW9G18    29.76F
Chester        LGT RAIN  72  72 100 SW9G16    29.76F
Groton         LGT RAIN  75  71  87 W16G24    29.75F
Wilimantic     LGT RAIN  76  73  91 SW10G21   29.74S

 IN RI

CITY           SKY/WX    TMP DP  RH WIND       PRES   REMARKS
Providence     CLOUDY    77  74  90 SW15G25   29.74F
Block Island   CLOUDY    72  71  97 SW18G25   29.78F
Westerly       LGT RAIN  76  73  91 SW12G22   29.76F
 IN MA

CITY           SKY/WX    TMP DP  RH WIND       PRES   REMARKS
Boston         LGT RAIN  75  72  90 S10       29.70F
Worcester      CLOUDY    72  69  90 SW16G23   29.73S
Westfield      CLOUDY    73  72  96 S8        29.70F
Provincetown   CLOUDY    73  71  93 SW21G28   29.76F
Nantucket      CLOUDY    71  71 100 S20       29.82F
$$

ANZ330-335-338-340-345-350-353-355-230700-
COASTAL MARINE OBSERVATIONS


STATION/POSITION TIME  SKY/WX   TEMP    WIND        PRES    VSBY  WAVE
                                AIR SEA DIR/SP/G                  HT/PER
                 (UTC)          (F)     (DEG/KT/KT) (MB)    (MI)  (FT/S)
NY HARB ENTRANCE 0550            73 75  240/ 12/ 14 1007.9          5/ 7
GREAT SOUTH BAY  0530            75 79  260/ 17/ 19   N/A
23 SSW MONTAUK P 0550            74 72              1009.2          6/ 7
15 E BARNEGAT LI 0530               76                N/A           7/ 7
HUDSON CANYON    0550            77 76  210/ 19/ 21 1009.2          7/ 6
KINGS POINT      0524            73 75  210/ 10/ 11 1007.9
EXECUTION ROCKS  NOT AVBL
WESTERN LI SOUND NOT AVBL
CENTRAL LI SOUND NOT AVBL
EASTERN LI SOUND NOT AVBL
ROBBINS REEF     0524                   190/ 14/ 15 1009.0
$$


>>>>>>>>>>>>>>>>>>>>>>>>>>>> KEY <<<<<<<<<<<<<<<<<<<<<<<<<<<
>                                                          <
>     SKY/WX - Sky Condition/Present Weather               <
>     TMP    - Temperature in Fahrenheit                   <
>     DP     - Dew Point in Fahrenheit                     <
>     RH     - Relative Humidity in Percent                <
>     WIND   - Direction (from) and Speed in MPH           <
>     PRES   - Mean Sea Level Pressure (inches of Hg)      <
>     WCI    - Wind Chill Index                            <
>     VSB    - VISIBILITY IN MILES                         <
>     HX     - HEAT INDEX                                  <
>     TC     - TEMPERATURE IN CELSIUS                      <
>     VRB    - VARIABLE WIND DIRECTION                     <
>                                                          <
>>>>>>>>>>>>>>>>>>>>>>>>>>>> KEY <<<<<<<<<<<<<<<<<<<<<<<<<<<




USA.gov is the U.S. government's official web portal to all federal, state and local government web resources and services.